sat.trackr.live / text

‹ back to catalog

EUTELSAT 172B

NORAD 42741 · 2017-029B

PAYLOAD ACTIVE UNKNOWN

§ Identity

Operator
Country
EUTE
Launch date
2017-06-01
Launch site
FRGUI
Launch vehicle
Mass (kg)
RCS (m²)

Purposes: comms

External: N2YO · Heavens-Above · Gunter

§ Orbital elements

Epoch: 2026-09-19T21:12:34.435296Z

Period
1,436.08 min
Inclination
0.0239°
Eccentricity
0.0000312
Mean motion
1.00273051 rev/d
Perigee alt
35,784.9 km
Apogee alt
35,787.6 km
Semi-major
42,164.4 km
B*
0.0000e+0
RAAN
141.5619°
Arg perigee
291.2502°
Mean anomaly
56.1299°
Rev number
3,470

§ Raw data

EUTELSAT 172B1 42741U 17029B   26262.88373189 -.00000010  00000+0  00000+0 0  99922 42741   0.0239 141.5619 0000312 291.2502  56.1299  1.00273051 34703

JSON: /api/v1/satellites/42741 · /tle

For live sub-satellite position, see the globe view (requires WebGL).

§ Visibility from observer

Set your observer location to see the next 7 days of passes ≥ 10°. The values pass through the URL so the page stays shareable.

No JS? Fill the form by hand. The geolocation button needs JavaScript.